Regional Weather Roundup
Issued by NWS

Home | Current Version | Previous Version | Graphics & Text | Print | Product List | Glossary On
Versions: 1 2 3 4 5 6 7 8 9 10 11 12 13 14 15 16 17 18 19 20 21 22 23 24 25 26 27 28 29 30 31 32 33 34 35 36 37 38 39 40 41 42 43 44 45 46 47 48 49 50
000
ASUS43 KBIS 280602
RWRND

NORTH DAKOTA REGIONAL WEATHER ROUNDUP
NATIONAL WEATHER SERVICE BISMARCK ND
100 AM CDT THU JUL 28 2016

NOTE: "FAIR" INDICATES FEW OR NO CLOUDS BELOW 12,000 FEET WITH NO
SIGNIFICANT WEATHER AND/OR OBSTRUCTIONS TO VISIBILITY.


NDZ001>003-009>011-017-280700-
NORTHWEST NORTH DAKOTA

CITY           SKY/WX    TMP DP  RH WIND       PRES   REMARKS
WILLISTON      CLOUDY    64  60  87 VRB5      30.16S
6HR MIN TEMP:  63; 6HR MAX TEMP:  70;

MINOT          CLOUDY    66  57  72 NE7       30.15S
MINOT AFB      CLOUDY    63  56  77 E8        30.14S
$$

NDZ018>021-031>035-040>046-280700-
SOUTHWEST NORTH DAKOTA

CITY           SKY/WX    TMP DP  RH WIND       PRES   REMARKS
BISMARCK       CLOUDY    65  62  90 E3        30.14R
6HR MIN TEMP:  65; 6HR MAX TEMP:  75; 6HR PCP: TRACE;

DICKINSON      PTCLDY    58  57  97 SE7       30.13F
GARRISON         N/A     63  62  97 E5        30.15R
6HR MIN TEMP:  62; 6HR MAX TEMP:  72; 6HR PCP:  0.26;

HETTINGER ARPT CLOUDY    60  57  89 SE3       30.16F
$$

NDZ004>008-012>016-024-026-027-054-280700-
NORTHEAST NORTH DAKOTA

CITY           SKY/WX    TMP DP  RH WIND       PRES   REMARKS
GRAND FORKS    CLOUDY    61  57  87 N7        30.09R
GRND FRKS AFB  CLOUDY    61  57  84 N9        30.10S
DEVILS LAKE    PTCLDY    58  55  90 NE6       30.16R
$$

NDZ022-023-025-028>030-036>039-047>053-280700-
SOUTHEAST NORTH DAKOTA

CITY           SKY/WX    TMP DP  RH WIND       PRES   REMARKS
FARGO          CLOUDY    63  59  87 NW7       30.06R
6HR MIN TEMP:  63; 6HR MAX TEMP:  77;

JAMESTOWN      CLOUDY    61  57  87 NE6       30.12R
$$





USA.gov is the U.S. government's official web portal to all federal, state and local government web resources and services.